Quick Links (Output Below):   Max & Min Temps   /   Climate Reports   /   Zone Forecasts
River Forecasts   /   Forestry Forecasts   /   Aviation Forecasts   /   Radars   /   Features

Zone Forecast (Independence County)

Pick a County:
Arkansas | Ashley | Baxter | Benton | Boone | Bradley | Calhoun | Carroll | Chicot | Clark | Clay
Cleburne | Cleveland | Columbia | Conway | Craighead | Crawford | Crittenden | Cross | Dallas
Desha | Drew | Faulkner | Franklin | Fulton | Garland | Grant | Greene | Hempstead | Hot Spring
Howard | Independence | Izard | Jackson | Jefferson | Johnson | Lafayette | Lawrence | Lee
Lincoln | Little River | Logan | Lonoke | Madison | Marion | Miller | Mississippi | Monroe
Montgomery | Nevada | Newton | Ouachita | Perry | Phillips | Pike | Poinsett | Polk | Pope | Prairie
Pulaski | Randolph | St. Francis | Saline | Scott | Searcy | Sebastian | Sevier | Sharp | Stone
Union | Van Buren | Washington | White | Woodruff | Yell
 Current Conditions 

WEATHER ROUNDUP FOR ARKANSAS
NATIONAL WEATHER SERVICE LITTLE ROCK AR
1000 AM CDT THU JUN 30 2016

NOTE: "FAIR" INDICATES FEW OR NO CLOUDS BELOW 12,000 FEET WITH NO
SIGNIFICANT WEATHER AND/OR OBSTRUCTIONS TO VISIBILITY.

1000 AM CDT THU JUN 30 2016

NOTE: "FAIR" INDICATES FEW OR NO CLOUDS BELOW 12,000 FEET WITH NO
SIGNIFICANT WEATHER AND/OR OBSTRUCTIONS TO VISIBILITY.

ARZ001-003-010-029-301600-
NORTHWEST ARKANSAS
  
CITY           SKY/WX    TMP DP  RH WIND       PRES   REMARKS
FAYETTEVILLE   CLOUDY    79  71  76 S8        30.06S                  
FORT SMITH     SUNNY     82  67  60 VRB3      30.03F                  
HARRISON       MOSUNNY   82  68  62 SW9       30.06S HX  85           
BENTONVILLE    CLOUDY    73  63  68 N6        30.08R                  
ROGERS         CLOUDY    73  66  78 NW5       30.08R                  
SILOAM SPGS    CLOUDY    79  63  57 SW8       30.07S                  
HIGHFILL       PTSUNNY   75  68  78 N7        30.07R                  
SPRINGDALE     PTSUNNY   77  68  73 S9        30.08S                  
ARZ004-005-016-301600-
NORTH CENTRAL ARKANSAS
  
CITY           SKY/WX    TMP DP  RH WIND       PRES   REMARKS
BATESVILLE     SUNNY     81  66  61 S6        30.04F                  
FLIPPIN        SUNNY     79  66  65 S5        30.02S                  
MTN HOME       SUNNY     77  68  73 S7        30.04F                  
ARZ040-041-301600-
WEST CENTRAL ARKANSAS
  
CITY           SKY/WX    TMP DP  RH WIND       PRES   REMARKS
MENA           SUNNY     81  73  78 E3        30.09S HX  85           
MOUNT IDA      SUNNY     78  71  79 W3        30.06R                  
ARZ009-017-025-026-028-301600-
NORTHEAST ARKANSAS
  
CITY           SKY/WX    TMP DP  RH WIND       PRES   REMARKS
CORNING          N/A     77  64  65 SE9       30.05F                  
JONESBORO      SUNNY     79  61  53 SE8       30.05S                  
NEWPORT        SUNNY     81  65  58 S6        30.06S                  
WALNUT RIDGE   MOSUNNY   79  63  57 SE9       30.04F                  
BLYTHEVILLE    SUNNY     79  59  50 SE5       30.06S                  
ARZ022-023-033-042-044-301600-
CENTRAL ARKANSAS
  
CITY           SKY/WX    TMP DP  RH WIND       PRES   REMARKS
LITTLE ROCK    MOSUNNY   84  66  54 S9        30.04S HX  86           
N LITTLE ROCK    N/A     82  65  56 S8        30.02S                  
JACKSONVILLE   SUNNY     84  66  54 VRB5      30.03F HX  87           
SEARCY         SUNNY     82  70  65 SE7       30.05F HX  86           
HOT SPRINGS    SUNNY     80  67  64 S3        30.07R                  
RUSSELLVILLE   SUNNY     80  69  69 VRB3      30.04S                  
ARZ036-301600-
EAST ARKANSAS
  
CITY           SKY/WX    TMP DP  RH WIND       PRES   REMARKS
WEST MEMPHIS   SUNNY     80  61  52 SE5       30.04S                  
ARZ050-053-066-070-073-301600-
SOUTHWEST ARKANSAS
  
CITY           SKY/WX    TMP DP  RH WIND       PRES   REMARKS
ARKADELPHIA    FAIR      84  66  54 VRB5      30.06R HX  86           
CAMDEN         SUNNY     82  64  54 E5        30.04R                  
TEXARKANA      SUNNY     83  68  60 VRB5      30.05R HX  86           
EL DORADO      SUNNY     83  66  56 SE5       30.04S HX  85           
DE QUEEN       SUNNY     82  69  64 SE6       30.04S HX  85           
ARZ056-057-069-301600-
SOUTHEAST ARKANSAS
  
CITY           SKY/WX    TMP DP  RH WIND       PRES   REMARKS
PINE BLUFF     SUNNY     81  67  62 SE6       30.04S                  
STUTTGART      SUNNY     81  66  61 SE9       30.04F                  
MONTICELLO     SUNNY     82  66  58 SE7       30.04S                  


 Forecast 

LAST UPDATED: 330 AM CDT THU JUN 30 2016

.TODAY...PARTLY CLOUDY EARLY IN THE MORNING...BECOMING PARTLY
SUNNY. A SLIGHT CHANCE OF SHOWERS AND THUNDERSTORMS IN THE
AFTERNOON. HIGHS IN THE UPPER 80S. SOUTH WINDS 5 MPH. THE CHANCE
OF PRECIPITATION 20 PERCENT. 
.TONIGHT...PARTLY CLOUDY IN THE EVENING...BECOMING MOSTLY CLOUDY.
A CHANCE OF SHOWERS AND THUNDERSTORMS. LOWS AROUND 70. WEST WINDS
5 MPH. THE CHANCE OF PRECIPITATION 40 PERCENT. AVERAGE RAINFALL
LESS THAN 1/10 INCH. 
.FRIDAY...MOSTLY CLOUDY. A CHANCE OF SHOWERS AND THUNDERSTORMS.
HIGHS IN THE UPPER 80S. NORTHEAST WINDS 5 MPH. THE CHANCE OF
PRECIPITATION 50 PERCENT. AVERAGE RAINFALL LESS THAN 1/10 INCH. 
Back to Main Page
http://www.srh.noaa.gov/lzk/qfcst.php

USA.gov is the U.S. government's official web portal to all federal, state and local government web resources and services.